Time,TemperatureF,DewpointF,PressureIn,WindDirection,WindDirectionDegrees,WindSpeedMPH,WindSpeedGustMPH,Humidity,HourlyPrecipIn,Conditions,Clouds,dailyrainin,SoftwareType,DateUTC
2013-04-27 00:03:00,45.0,28.0,30.44,NW,320,5.0,-999.0,52,-99.99,,,-99.99,,2013-04-27 04:03:00,
2013-04-27 00:13:00,45.0,28.0,30.45,North,0,0.0,-999.0,52,-99.99,,,-99.99,,2013-04-27 04:13:00,
2013-04-27 00:23:00,41.0,28.0,30.45,East,80,3.0,-999.0,60,-99.99,,,-99.99,,2013-04-27 04:23:00,
2013-04-27 00:33:00,39.0,28.0,30.45,North,0,0.0,-999.0,64,-99.99,,,-99.99,,2013-04-27 04:33:00,
2013-04-27 00:43:00,39.0,28.0,30.46,NNW,330,3.0,-999.0,64,-99.99,,,-99.99,,2013-04-27 04:43:00,
2013-04-27 00:52:00,41.0,28.0,30.46,NW,320,5.0,-999.0,60,-99.99,,,-99.99,,2013-04-27 04:52:00,
2013-04-27 01:02:00,41.0,28.0,30.46,NW,320,5.0,-999.0,60,-99.99,,,-99.99,,2013-04-27 05:02:00,
2013-04-27 01:12:00,41.0,28.0,30.45,WNW,300,5.0,-999.0,60,-99.99,,,-99.99,,2013-04-27 05:12:00,
2013-04-27 01:22:00,41.0,28.0,30.45,WNW,300,6.0,-999.0,60,-99.99,,,-99.99,,2013-04-27 05:22:00,
2013-04-27 01:32:00,43.0,28.0,30.45,WNW,300,7.0,-999.0,56,-99.99,,,-99.99,,2013-04-27 05:32:00,
2013-04-27 01:42:00,43.0,28.0,30.45,WNW,300,7.0,-999.0,56,-99.99,,,-99.99,,2013-04-27 05:42:00,
2013-04-27 01:52:00,39.0,28.0,30.45,North,0,0.0,-999.0,64,-99.99,,,-99.99,,2013-04-27 05:52:00,
2013-04-27 02:02:00,39.0,28.0,30.45,North,0,0.0,-999.0,64,-99.99,,,-99.99,,2013-04-27 06:02:00,
2013-04-27 02:12:00,37.0,28.0,30.45,North,0,0.0,-999.0,69,-99.99,,,-99.99,,2013-04-27 06:12:00,
2013-04-27 02:22:00,37.0,32.0,30.44,North,0,0.0,-999.0,80,-99.99,,,-99.99,,2013-04-27 06:22:00,
2013-04-27 02:32:00,37.0,30.0,30.44,North,0,0.0,-999.0,74,-99.99,,,-99.99,,2013-04-27 06:32:00,
2013-04-27 02:42:00,37.0,30.0,30.44,North,0,0.0,-999.0,74,-99.99,,,-99.99,,2013-04-27 06:42:00,
2013-04-27 02:52:00,37.0,30.0,30.43,North,0,0.0,-999.0,74,-99.99,,,-99.99,,2013-04-27 06:52:00,
2013-04-27 03:01:00,37.0,30.0,30.43,North,0,0.0,-999.0,74,-99.99,,,-99.99,,2013-04-27 07:01:00,
2013-04-27 03:11:00,37.0,30.0,30.43,North,0,0.0,-999.0,74,-99.99,,,-99.99,,2013-04-27 07:11:00,
2013-04-27 03:21:00,37.0,28.0,30.43,North,0,0.0,-999.0,69,-99.99,,,-99.99,,2013-04-27 07:21:00,
2013-04-27 03:32:00,36.0,28.0,30.43,North,0,0.0,-999.0,74,-99.99,,,-99.99,,2013-04-27 07:32:00,
2013-04-27 03:42:00,36.0,28.0,30.42,North,0,0.0,-999.0,74,-99.99,,,-99.99,,2013-04-27 07:42:00,
2013-04-27 03:52:00,36.0,28.0,30.43,North,0,0.0,-999.0,74,-99.99,,,-99.99,,2013-04-27 07:52:00,
2013-04-27 04:02:00,36.0,28.0,30.43,North,0,0.0,-999.0,74,-99.99,,,-99.99,,2013-04-27 08:02:00,
2013-04-27 04:11:00,36.0,30.0,30.43,North,0,0.0,-999.0,80,-99.99,,,-99.99,,2013-04-27 08:11:00,
2013-04-27 04:21:00,36.0,28.0,30.43,East,80,3.0,-999.0,74,-99.99,,,-99.99,,2013-04-27 08:21:00,
2013-04-27 04:33:00,36.0,28.0,30.43,North,0,0.0,-999.0,74,-99.99,,,-99.99,,2013-04-27 08:33:00,
2013-04-27 04:41:00,34.0,27.0,30.43,North,0,0.0,-999.0,74,-99.99,,,-99.99,,2013-04-27 08:41:00,
2013-04-27 04:51:00,34.0,28.0,30.43,North,0,0.0,-999.0,80,-99.99,,,-99.99,,2013-04-27 08:51:00,
2013-04-27 05:01:00,34.0,28.0,30.43,North,0,0.0,-999.0,80,-99.99,,,-99.99,,2013-04-27 09:01:00,
2013-04-27 05:11:00,34.0,28.0,30.43,North,360,3.0,-999.0,80,-99.99,,,-99.99,,2013-04-27 09:11:00,
2013-04-27 05:21:00,34.0,28.0,30.43,NNW,340,6.0,-999.0,80,-99.99,,,-99.99,,2013-04-27 09:21:00,
2013-04-27 05:33:00,34.0,28.0,30.43,NNW,340,5.0,-999.0,80,-99.99,,,-99.99,,2013-04-27 09:33:00,
2013-04-27 05:42:00,32.0,27.0,30.43,North,0,0.0,-999.0,80,-99.99,,,-99.99,,2013-04-27 09:42:00,
2013-04-27 05:53:00,34.0,27.0,30.43,North,0,0.0,-999.0,74,-99.99,,,-99.99,,2013-04-27 09:53:00,
2013-04-27 06:03:00,34.0,27.0,30.43,North,0,0.0,-999.0,74,-99.99,,,-99.99,,2013-04-27 10:03:00,
2013-04-27 06:12:00,34.0,27.0,30.43,North,0,0.0,-999.0,74,-99.99,,,-99.99,,2013-04-27 10:12:00,
2013-04-27 06:22:00,34.0,28.0,30.43,North,0,0.0,-999.0,80,-99.99,,,-99.99,,2013-04-27 10:22:00,
2013-04-27 06:32:00,34.0,28.0,30.44,North,0,0.0,-999.0,80,-99.99,,,-99.99,,2013-04-27 10:32:00,
2013-04-27 06:42:00,34.0,28.0,30.44,North,0,0.0,-999.0,80,-99.99,,,-99.99,,2013-04-27 10:42:00,
2013-04-27 06:52:00,34.0,28.0,30.45,North,0,0.0,-999.0,80,-99.99,,,-99.99,,2013-04-27 10:52:00,
2013-04-27 07:02:00,34.0,28.0,30.45,North,0,0.0,-999.0,80,-99.99,,,-99.99,,2013-04-27 11:02:00,
2013-04-27 07:12:00,34.0,28.0,30.45,North,0,0.0,-999.0,80,-99.99,,,-99.99,,2013-04-27 11:12:00,
2013-04-27 07:22:00,36.0,30.0,30.45,North,0,0.0,-999.0,80,-99.99,,,-99.99,,2013-04-27 11:22:00,
2013-04-27 07:32:00,36.0,30.0,30.45,North,0,0.0,-999.0,80,-99.99,,,-99.99,,2013-04-27 11:32:00,
2013-04-27 07:42:00,36.0,30.0,30.45,North,0,0.0,-999.0,80,-99.99,,,-99.99,,2013-04-27 11:42:00,
2013-04-27 07:52:00,37.0,30.0,30.45,North,0,0.0,-999.0,74,-99.99,,,-99.99,,2013-04-27 11:52:00,
2013-04-27 08:01:00,37.0,30.0,30.45,North,0,0.0,-999.0,74,-99.99,,,-99.99,,2013-04-27 12:01:00,
2013-04-27 08:11:00,39.0,30.0,30.45,North,0,0.0,-999.0,69,-99.99,,,-99.99,,2013-04-27 12:11:00,
2013-04-27 08:22:00,41.0,30.0,30.45,North,0,0.0,-999.0,65,-99.99,,,-99.99,,2013-04-27 12:22:00,
2013-04-27 08:32:00,43.0,32.0,30.45,North,0,0.0,-999.0,65,-99.99,,,-99.99,,2013-04-27 12:32:00,
2013-04-27 08:42:00,45.0,34.0,30.45,North,0,0.0,-999.0,65,-99.99,,,-99.99,,2013-04-27 12:42:00,
2013-04-27 08:52:00,45.0,32.0,30.45,North,0,0.0,-999.0,61,-99.99,,,-99.99,,2013-04-27 12:52:00,
2013-04-27 09:02:00,45.0,32.0,30.45,North,0,0.0,-999.0,61,-99.99,,,-99.99,,2013-04-27 13:02:00,
2013-04-27 09:11:00,46.0,32.0,30.45,North,0,0.0,-999.0,57,-99.99,,,-99.99,,2013-04-27 13:11:00,
2013-04-27 09:21:00,48.0,30.0,30.45,North,0,0.0,-999.0,49,-99.99,,,-99.99,,2013-04-27 13:21:00,
2013-04-27 09:32:00,50.0,30.0,30.45,North,0,0.0,-999.0,46,-99.99,,,-99.99,,2013-04-27 13:32:00,
2013-04-27 09:42:00,50.0,30.0,30.45,North,0,0.0,-999.0,46,-99.99,,,-99.99,,2013-04-27 13:42:00,
2013-04-27 09:52:00,52.0,30.0,30.45,North,0,0.0,-999.0,43,-99.99,,,-99.99,,2013-04-27 13:52:00,
2013-04-27 10:02:00,52.0,30.0,30.45,North,0,0.0,-999.0,43,-99.99,,,-99.99,,2013-04-27 14:02:00,
2013-04-27 10:11:00,52.0,28.0,30.45,North,0,0.0,-999.0,40,-99.99,,,-99.99,,2013-04-27 14:11:00,
2013-04-27 10:21:00,54.0,28.0,30.44,North,0,0.0,-999.0,37,-99.99,,,-99.99,,2013-04-27 14:21:00,
2013-04-27 10:32:00,54.0,30.0,30.44,North,0,0.0,-999.0,40,-99.99,,,-99.99,,2013-04-27 14:32:00,
2013-04-27 10:42:00,54.0,28.0,30.44,North,0,0.0,-999.0,37,-99.99,,,-99.99,,2013-04-27 14:42:00,
2013-04-27 10:52:00,54.0,28.0,30.44,North,0,0.0,-999.0,37,-99.99,,,-99.99,,2013-04-27 14:52:00,
2013-04-27 11:01:00,54.0,28.0,30.44,North,0,0.0,-999.0,37,-99.99,,,-99.99,,2013-04-27 15:01:00,
2013-04-27 11:12:00,55.0,28.0,30.44,SE,130,3.0,-999.0,35,-99.99,,,-99.99,,2013-04-27 15:12:00,
2013-04-27 11:22:00,55.0,27.0,30.43,North,0,0.0,-999.0,32,-99.99,,,-99.99,,2013-04-27 15:22:00,
2013-04-27 11:33:00,55.0,28.0,30.43,North,0,0.0,-999.0,35,-99.99,,,-99.99,,2013-04-27 15:33:00,
2013-04-27 11:42:00,57.0,28.0,30.43,NNE,20,5.0,-999.0,33,-99.99,,,-99.99,,2013-04-27 15:42:00,
2013-04-27 11:52:00,55.0,27.0,30.42,East,100,3.0,-999.0,32,-99.99,,,-99.99,,2013-04-27 15:52:00,
2013-04-27 12:03:00,55.0,27.0,30.42,East,100,3.0,-999.0,32,-99.99,,,-99.99,,2013-04-27 16:03:00,
2013-04-27 12:13:00,57.0,27.0,30.42,SSE,150,3.0,-999.0,30,-99.99,,,-99.99,,2013-04-27 16:13:00,
2013-04-27 12:22:00,57.0,27.0,30.41,North,0,0.0,-999.0,30,-99.99,,,-99.99,,2013-04-27 16:22:00,
2013-04-27 12:33:00,59.0,27.0,30.40,North,0,0.0,-999.0,28,-99.99,,,-99.99,,2013-04-27 16:33:00,
2013-04-27 12:42:00,59.0,27.0,30.40,SSE,160,6.0,-999.0,28,-99.99,,,-99.99,,2013-04-27 16:42:00,
2013-04-27 12:52:00,59.0,23.0,30.39,South,190,5.0,-999.0,24,-99.99,,,-99.99,,2013-04-27 16:52:00,
2013-04-27 13:02:00,59.0,23.0,30.39,South,190,5.0,-999.0,24,-99.99,,,-99.99,,2013-04-27 17:02:00,
2013-04-27 13:12:00,61.0,19.0,30.38,NW,320,7.0,-999.0,19,-99.99,,,-99.99,,2013-04-27 17:12:00,
2013-04-27 13:22:00,61.0,18.0,30.38,North,0,0.0,-999.0,18,-99.99,,,-99.99,,2013-04-27 17:22:00,
2013-04-27 13:32:00,61.0,16.0,30.37,North,360,3.0,-999.0,17,-99.99,,,-99.99,,2013-04-27 17:32:00,
2013-04-27 13:42:00,61.0,16.0,30.37,North,0,0.0,-999.0,17,-99.99,,,-99.99,,2013-04-27 17:42:00,
2013-04-27 13:53:00,63.0,18.0,30.37,North,0,0.0,-999.0,17,-99.99,,,-99.99,,2013-04-27 17:53:00,
2013-04-27 14:02:00,63.0,18.0,30.37,North,0,0.0,-999.0,17,-99.99,,,-99.99,,2013-04-27 18:02:00,
2013-04-27 14:12:00,63.0,18.0,30.37,WSW,250,3.0,-999.0,17,-99.99,,,-99.99,,2013-04-27 18:12:00,
2013-04-27 14:22:00,63.0,14.0,30.36,NNW,330,5.0,-999.0,14,-99.99,,,-99.99,,2013-04-27 18:22:00,
2013-04-27 14:32:00,63.0,14.0,30.36,North,0,0.0,-999.0,14,-99.99,,,-99.99,,2013-04-27 18:32:00,
2013-04-27 14:42:00,63.0,18.0,30.35,North,0,0.0,-999.0,17,-99.99,,,-99.99,,2013-04-27 18:42:00,
2013-04-27 14:52:00,63.0,19.0,30.35,West,280,6.0,-999.0,18,-99.99,,,-99.99,,2013-04-27 18:52:00,
2013-04-27 15:02:00,63.0,19.0,30.35,West,280,6.0,-999.0,18,-99.99,,,-99.99,,2013-04-27 19:02:00,
2013-04-27 15:11:00,63.0,21.0,30.34,WSW,250,5.0,-999.0,20,-99.99,,,-99.99,,2013-04-27 19:11:00,
2013-04-27 15:21:00,63.0,25.0,30.33,North,350,5.0,-999.0,23,-99.99,,,-99.99,,2013-04-27 19:21:00,
2013-04-27 15:32:00,64.0,25.0,30.33,NNW,340,5.0,-999.0,22,-99.99,,,-99.99,,2013-04-27 19:32:00,
2013-04-27 15:42:00,63.0,27.0,30.33,WNW,290,6.0,-999.0,25,-99.99,,,-99.99,,2013-04-27 19:42:00,
2013-04-27 15:52:00,63.0,27.0,30.32,WNW,290,6.0,-999.0,25,-99.99,,,-99.99,,2013-04-27 19:52:00,
2013-04-27 16:02:00,63.0,27.0,30.32,WNW,290,6.0,-999.0,25,-99.99,,,-99.99,,2013-04-27 20:02:00,
2013-04-27 16:11:00,63.0,27.0,30.32,West,280,7.0,-999.0,25,-99.99,,,-99.99,,2013-04-27 20:11:00,
2013-04-27 16:21:00,63.0,28.0,30.31,North,0,0.0,-999.0,27,-99.99,,,-99.99,,2013-04-27 20:21:00,
2013-04-27 16:32:00,63.0,28.0,30.31,WNW,300,3.0,-999.0,27,-99.99,,,-99.99,,2013-04-27 20:32:00,
2013-04-27 16:42:00,63.0,27.0,30.30,North,0,0.0,-999.0,25,-99.99,,,-99.99,,2013-04-27 20:42:00,
2013-04-27 16:52:00,63.0,28.0,30.29,West,280,6.0,-999.0,27,-99.99,,,-99.99,,2013-04-27 20:52:00,
2013-04-27 17:02:00,63.0,28.0,30.29,West,280,6.0,-999.0,27,-99.99,,,-99.99,,2013-04-27 21:02:00,
2013-04-27 17:12:00,64.0,28.0,30.29,West,270,7.0,-999.0,25,-99.99,,,-99.99,,2013-04-27 21:12:00,
2013-04-27 17:21:00,64.0,30.0,30.29,WNW,300,8.0,-999.0,27,-99.99,,,-99.99,,2013-04-27 21:21:00,
2013-04-27 17:33:00,64.0,28.0,30.29,North,0,0.0,-999.0,25,-99.99,,,-99.99,,2013-04-27 21:33:00,
2013-04-27 17:43:00,63.0,28.0,30.29,West,280,5.0,-999.0,27,-99.99,,,-99.99,,2013-04-27 21:43:00,
2013-04-27 17:53:00,63.0,30.0,30.29,NW,310,5.0,-999.0,29,-99.99,,,-99.99,,2013-04-27 21:53:00,
2013-04-27 18:03:00,63.0,30.0,30.29,NW,310,5.0,-999.0,29,-99.99,,,-99.99,,2013-04-27 22:03:00,
2013-04-27 18:13:00,63.0,28.0,30.29,North,0,0.0,-999.0,27,-99.99,,,-99.99,,2013-04-27 22:13:00,
2013-04-27 18:22:00,63.0,30.0,30.29,WNW,290,3.0,-999.0,29,-99.99,,,-99.99,,2013-04-27 22:22:00,
2013-04-27 18:32:00,63.0,28.0,30.29,North,0,0.0,-999.0,27,-99.99,,,-99.99,,2013-04-27 22:32:00,
2013-04-27 18:42:00,64.0,28.0,30.29,North,0,0.0,-999.0,25,-99.99,,,-99.99,,2013-04-27 22:42:00,
2013-04-27 18:52:00,64.0,30.0,30.29,North,0,0.0,-999.0,27,-99.99,,,-99.99,,2013-04-27 22:52:00,
2013-04-27 19:02:00,64.0,30.0,30.29,North,0,0.0,-999.0,27,-99.99,,,-99.99,,2013-04-27 23:02:00,
2013-04-27 19:12:00,63.0,28.0,30.29,North,0,0.0,-999.0,27,-99.99,,,-99.99,,2013-04-27 23:12:00,
2013-04-27 19:22:00,61.0,30.0,30.28,NE,50,5.0,-999.0,31,-99.99,,,-99.99,,2013-04-27 23:22:00,
2013-04-27 19:32:00,61.0,32.0,30.28,NNE,30,5.0,-999.0,33,-99.99,,,-99.99,,2013-04-27 23:32:00,
2013-04-27 19:42:00,57.0,34.0,30.28,NE,40,6.0,-999.0,41,-99.99,,,-99.99,,2013-04-27 23:42:00,
2013-04-27 19:52:00,55.0,34.0,30.28,NE,40,5.0,-999.0,43,-99.99,,,-99.99,,2013-04-27 23:52:00,
2013-04-27 20:01:00,55.0,34.0,30.28,NE,40,5.0,-999.0,43,-99.99,,,-99.99,,2013-04-28 00:01:00,
2013-04-27 20:12:00,59.0,30.0,30.28,NNE,20,5.0,-999.0,33,-99.99,,,-99.99,,2013-04-28 00:12:00,
2013-04-27 20:21:00,55.0,32.0,30.28,North,10,5.0,-999.0,40,-99.99,,,-99.99,,2013-04-28 00:21:00,
2013-04-27 20:32:00,55.0,32.0,30.28,North,360,5.0,-999.0,40,-99.99,,,-99.99,,2013-04-28 00:32:00,
2013-04-27 20:42:00,55.0,32.0,30.28,North,360,5.0,-999.0,40,-99.99,,,-99.99,,2013-04-28 00:42:00,
2013-04-27 20:52:00,54.0,34.0,30.28,North,10,5.0,-999.0,46,-99.99,,,-99.99,,2013-04-28 00:52:00,
2013-04-27 21:02:00,54.0,34.0,30.28,North,10,5.0,-999.0,46,-99.99,,,-99.99,,2013-04-28 01:02:00,
2013-04-27 21:11:00,55.0,34.0,30.29,North,360,3.0,-999.0,43,-99.99,,,-99.99,,2013-04-28 01:11:00,
2013-04-27 21:22:00,54.0,34.0,30.29,North,350,3.0,-999.0,46,-99.99,,,-99.99,,2013-04-28 01:22:00,
2013-04-27 21:32:00,54.0,34.0,30.29,North,0,0.0,-999.0,46,-99.99,,,-99.99,,2013-04-28 01:32:00,
2013-04-27 21:42:00,52.0,34.0,30.29,North,0,0.0,-999.0,50,-99.99,,,-99.99,,2013-04-28 01:42:00,
2013-04-27 21:52:00,54.0,32.0,30.29,North,0,0.0,-999.0,43,-99.99,,,-99.99,,2013-04-28 01:52:00,
2013-04-27 22:02:00,54.0,32.0,30.29,North,0,0.0,-999.0,43,-99.99,,,-99.99,,2013-04-28 02:02:00,
2013-04-27 22:12:00,52.0,34.0,30.30,North,0,0.0,-999.0,50,-99.99,,,-99.99,,2013-04-28 02:12:00,
2013-04-27 22:22:00,52.0,34.0,30.30,North,0,0.0,-999.0,50,-99.99,,,-99.99,,2013-04-28 02:22:00,
2013-04-27 22:32:00,52.0,34.0,30.30,North,0,0.0,-999.0,50,-99.99,,,-99.99,,2013-04-28 02:32:00,
2013-04-27 22:42:00,48.0,34.0,30.30,North,0,0.0,-999.0,57,-99.99,,,-99.99,,2013-04-28 02:42:00,
2013-04-27 22:52:00,50.0,34.0,30.30,North,0,0.0,-999.0,53,-99.99,,,-99.99,,2013-04-28 02:52:00,
2013-04-27 23:01:00,50.0,34.0,30.30,North,0,0.0,-999.0,53,-99.99,,,-99.99,,2013-04-28 03:01:00,
2013-04-27 23:11:00,48.0,34.0,30.29,North,0,0.0,-999.0,57,-99.99,,,-99.99,,2013-04-28 03:11:00,
2013-04-27 23:21:00,48.0,34.0,30.29,North,0,0.0,-999.0,57,-99.99,,,-99.99,,2013-04-28 03:21:00,
2013-04-27 23:33:00,48.0,34.0,30.29,North,0,0.0,-999.0,57,-99.99,,,-99.99,,2013-04-28 03:33:00,
2013-04-27 23:43:00,48.0,34.0,30.29,North,0,0.0,-999.0,57,-99.99,,,-99.99,,2013-04-28 03:43:00,
2013-04-27 23:53:00,46.0,36.0,30.30,North,0,0.0,-999.0,65,-99.99,,,-99.99,,2013-04-28 03:53:00,